RH
30 28 26 23 22 21 21 23 31 40 43 42 40 36 30 25 22 22 22 23 24 24 24 25 26 26 26 29 33 36 39 39 39 39 40 42 43 43 45 46 46 47 47 48 50 50 52 53 53 55 56 57 59 61 63 66 68 71 73 76 78 79 77 73 75 78 80 84 86 83 79 70 70 76 76 74 73 72 74 63 47 52 56 37 17 14 22
29 27 24 23 22 21 23 32 42 46 45 42 38 32 26 23 22 23 23 24 24 24 26 26 26 28 30 35 39 40 40 39 40 42 43 44 45 47 49 49 50 51 51 52 53 54 56 57 58 60 61 63 65 66 68 72 76 79 80 83 84 85 84 77 74 77 77 80 81 79 80 78 75 77 82 82 80 78 76 65 50 48 49 39 21 10 14
28 25 24 23 22 24 33 44 48 47 45 40 34 28 24 23 23 24 24 24 25 26 26 26 28 33 37 40 41 40 40 41 43 45 46 48 50 52 54 54 54 55 56 56 57 58 60 61 62 64 66 68 70 72 75 78 82 86 86 88 89 89 91 87 79 78 78 81 86 85 86 88 88 87 90 90 86 83 79 66 51 40 35 36 28 13 10
27 25 25 24 25 33 45 50 49 47 43 35 29 25 24 24 24 25 25 26 27 27 27 30 35 39 42 42 41 41 43 45 47 48 50 53 56 57 59 59 59 60 61 60 60 61 63 65 68 69 70 73 75 78 81 83 87 90 91 92 93 93 96 96 89 83 83 88 93 94 94 96 99 97 95 93 87 87 85 66 48 40 28 23 26 17 10
27 27 26 26 32 44 51 51 49 46 39 30 26 25 24 24 25 26 27 28 27 28 31 36 40 42 42 42 42 44 47 47 50 53 56 60 62 62 62 62 63 64 64 64 64 65 68 70 72 74 75 78 80 81 85 88 90 93 95 95 96 97 99 101 98 92 91 93 96 101 103 102 104 102 98 96 90 91 91 69 47 45 31 13 15 16 11
29 29 27 31 44 53 53 52 50 43 33 28 26 25 25 25 26 28 29 28 28 31 36 41 43 42 42 43 45 46 49 51 55 60 63 65 65 65 66 66 66 67 67 67 69 71 73 76 77 78 79 81 83 86 88 92 93 95 99 99 98 101 103 104 105 102 99 99 100 106 109 105 106 105 100 100 95 91 92 73 49 46 36 16 11 13 10
30 28 31 45 58 60 56 54 48 37 30 27 26 26 25 26 28 30 30 29 31 36 40 43 44 43 43 45 46 48 52 56 61 65 67 68 68 68 68 68 68 70 72 72 74 76 79 81 81 82 84 85 87 90 91 95 96 97 100 100 99 103 104 105 108 106 104 106 104 106 108 105 106 107 102 103 100 91 88 73 47 38 34 22 14 13 11
31 31 45 63 68 62 57 51 41 33 30 28 27 26 27 28 30 31 31 33 36 41 43 44 45 45 44 46 48 52 57 61 65 68 69 70 71 69 69 69 71 74 76 77 80 81 83 85 85 86 88 89 91 94 95 96 97 97 100 101 100 102 103 105 108 107 106 106 102 101 105 105 105 106 102 99 99 95 87 67 40 25 20 17 15 11 10
31 42 64 74 68 61 55 46 37 32 30 29 27 27 28 29 30 32 35 38 40 43 45 44 45 45 45 48 52 56 61 64 68 71 72 72 71 70 70 71 73 76 79 82 84 85 86 88 88 88 89 90 92 94 95 95 95 96 97 98 98 99 101 101 105 108 108 107 103 100 103 104 102 101 96 89 91 99 95 68 41 27 16 9 11 10 7
39 60 76 73 65 60 52 42 36 33 30 28 27 28 29 30 32 35 40 42 43 45 45 44 45 47 49 51 55 59 63 67 70 73 73 72 71 71 72 72 74 77 81 84 86 88 89 90 90 90 91 91 91 93 94 94 94 94 94 94 94 97 99 100 103 107 108 107 105 103 103 103 100 94 89 81 77 88 97 72 37 26 21 10 9 10 7
53 74 77 70 65 59 48 40 36 33 30 28 29 29 29 31 35 39 43 45 45 45 45 45 47 50 52 54 58 62 67 69 71 72 72 71 70 70 71 73 75 78 81 85 88 90 91 92 93 94 95 95 95 95 96 95 94 94 94 94 94 96 98 100 102 105 106 104 102 101 102 102 97 89 83 77 64 65 88 86 48 24 23 16 11 13 9
68 79 74 69 65 55 45 40 36 32 29 29 30 30 31 35 40 42 44 45 45 44 46 48 50 52 54 57 61 64 67 69 71 70 69 69 68 68 70 73 75 76 79 85 89 91 92 93 95 96 98 99 98 98 99 98 96 95 96 97 97 96 98 99 101 103 103 100 96 94 96 97 97 89 80 74 60 48 67 88 67 34 21 16 12 11 9
78 79 73 70 62 50 44 40 34 30 29 30 31 31 34 39 43 43 44 46 46 45 47 50 52 53 55 59 63 65 66 67 69 69 67 66 64 64 66 68 70 72 75 79 84 88 90 91 93 96 98 99 99 100 100 99 99 98 98 100 100 98 98 98 97 99 100 97 93 92 91 90 91 85 72 64 57 42 40 52 48 27 15 12 9 8 7
82 77 73 67 57 47 43 38 32 30 30 31 31 33 37 41 43 44 45 46 47 47 49 51 52 53 56 60 63 64 64 64 65 65 64 62 60 60 60 60 62 64 65 67 72 78 82 84 88 92 94 96 98 100 101 101 101 101 100 102 102 100 99 99 97 98 98 95 92 87 84 82 80 76 66 57 52 42 30 25 23 16 11 10 7 6 7
81 76 72 63 53 47 42 36 32 30 31 32 33 36 40 42 43 45 46 46 48 48 48 50 51 53 57 61 62 63 62 61 61 60 59 58 57 56 55 55 56 55 55 57 60 65 72 77 81 84 89 93 95 99 100 100 101 103 102 102 103 102 102 101 99 99 100 96 90 83 79 78 75 71 66 59 50 41 32 24 19 15 11 8 7 7 6
78 74 69 58 51 47 41 35 32 31 32 33 34 38 41 42 43 46 46 45 46 47 47 48 50 54 58 61 62 62 61 60 59 58 56 54 53 53 52 52 52 51 51 54 54 57 63 69 73 77 82 88 93 96 98 97 99 103 104 104 105 104 102 101 98 97 99 99 95 87 81 77 75 72 67 61 54 44 34 26 19 14 11 8 7 7 5
75 72 64 56 51 46 39 34 32 32 32 33 36 40 43 44 44 45 45 43 43 46 47 47 49 53 58 62 65 64 63 63 61 58 56 53 51 51 50 51 52 51 52 54 53 53 58 62 66 71 77 84 90 93 94 95 98 103 106 106 108 107 104 103 100 97 96 99 97 91 85 79 77 74 66 59 53 45 35 26 18 12 10 8 6 6 5
74 68 60 55 51 44 37 33 32 33 33 34 38 42 44 44 44 44 44 42 43 46 47 47 49 53 58 64 67 66 66 65 63 59 58 56 53 52 51 52 53 53 54 54 51 52 56 58 61 66 73 81 86 87 90 94 98 103 106 106 107 108 105 103 102 97 94 95 95 91 86 80 76 72 64 54 47 40 33 25 16 11 9 7 6 6 5
73 64 58 55 50 41 35 33 33 34 33 35 41 45 45 44 44 44 44 44 45 47 47 46 48 54 60 65 66 65 65 64 63 61 60 58 56 54 55 55 55 55 54 52 50 50 53 56 58 62 70 78 82 84 87 93 98 102 105 105 106 106 103 100 99 96 91 90 89 84 79 74 68 64 59 51 42 35 29 22 15 11 9 7 6 6 5
70 62 59 54 46 38 34 33 34 34 35 38 43 47 46 44 44 44 44 45 47 48 46 46 51 57 63 63 62 61 60 59 60 60 59 58 56 57 59 58 56 55 53 50 50 51 51 54 56 59 66 73 77 82 86 91 96 101 104 105 105 105 103 99 97 93 87 85 85 82 76 71 67 62 58 52 43 35 28 22 16 12 8 7 6 6 5
66 62 58 50 42 35 32 34 34 34 37 42 46 48 47 45 43 43 44 45 47 48 49 51 56 60 61 60 58 58 56 54 56 59 57 57 59 62 65 63 58 55 53 52 51 51 50 52 54 57 61 67 73 80 85 89 93 98 103 104 103 104 104 101 97 95 90 86 87 87 81 75 71 66 60 53 44 35 29 23 17 12 9 7 6 5 5
65 63 55 46 39 33 33 35 34 36 42 45 48 48 46 44 42 42 43 45 48 51 53 55 58 59 59 59 58 54 51 52 56 58 55 58 64 70 72 68 60 56 56 54 53 52 51 52 54 55 58 62 69 78 85 89 91 95 102 105 103 102 103 101 99 98 95 90 88 88 82 76 71 66 60 53 45 36 29 22 16 12 9 7 6 6 5
67 62 51 43 36 32 34 36 35 40 46 47 48 47 43 41 41 41 44 47 50 55 56 57 59 59 60 61 57 52 51 53 56 57 57 64 72 77 76 69 60 57 58 56 54 55 54 54 54 55 57 61 68 78 85 88 90 93 99 104 103 99 99 100 99 97 93 89 85 84 81 76 71 67 62 57 51 41 30 22 17 12 10 8 6 6 5
67 59 48 40 34 32 35 36 38 45 48 47 47 44 40 39 40 43 47 50 52 57 58 58 60 63 64 62 56 51 52 55 57 60 64 71 76 79 76 68 60 58 58 56 56 57 56 55 55 55 57 62 70 80 86 87 89 92 97 101 100 97 96 97 98 95 92 89 85 82 82 77 70 67 64 59 53 43 32 24 17 12 9 8 6 6 6
65 56 45 37 32 33 36 37 42 47 48 47 45 40 37 39 42 45 50 53 55 59 62 63 66 69 67 60 53 52 55 60 62 65 69 73 75 76 73 66 59 58 57 56 57 58 57 56 54 53 57 64 73 83 88 88 88 91 97 100 98 94 92 93 94 93 91 87 81 78 79 76 70 66 62 56 50 41 32 24 17 12 9 7 6 6 6
62 52 43 35 32 34 37 39 45 48 47 46 42 38 37 40 44 49 53 57 60 63 66 71 74 72 65 56 53 56 60 64 66 66 67 71 74 73 69 63 60 59 57 56 57 58 57 54 51 52 59 68 77 85 89 89 88 90 96 99 95 92 90 89 89 89 87 82 76 73 72 71 68 63 58 53 46 39 31 23 17 11 8 7 6 6 5
57 48 41 33 32 36 38 42 48 48 46 44 39 37 39 42 47 53 56 60 65 69 74 77 74 66 58 54 58 64 64 64 66 66 67 71 74 70 65 63 61 59 57 57 57 57 55 51 50 55 63 72 80 86 89 90 91 92 96 98 95 92 90 88 87 87 85 80 76 71 68 66 63 58 54 50 44 38 31 24 16 11 8 6 6 6 5
54 45 38 32 34 37 39 45 49 47 45 42 38 37 41 45 50 55 58 63 71 76 77 72 63 58 58 61 65 68 65 64 66 69 70 72 71 67 63 63 63 60 57 57 57 54 52 50 51 59 68 75 82 86 88 91 93 93 96 98 97 94 91 88 88 88 86 81 76 71 67 63 60 55 51 47 43 38 31 23 16 11 8 6 6 6 5
51 43 34 32 35 38 40 46 48 45 43 40 38 39 43 47 52 58 64 70 75 75 72 65 60 63 67 69 68 68 68 70 71 72 71 68 65 65 65 64 64 61 58 57 56 53 51 52 56 62 70 76 81 84 88 92 94 94 97 99 97 95 92 89 88 88 88 86 81 73 67 62 59 55 50 46 43 38 31 23 16 11 8 6 6 6 5
48 40 32 33 36 37 42 48 47 44 42 39 38 42 47 51 57 64 71 73 71 68 66 64 66 70 71 71 69 68 72 75 72 70 68 65 64 66 68 67 65 63 59 57 56 54 55 58 62 66 71 77 82 85 87 91 92 93 96 98 98 96 93 91 90 89 89 90 85 78 70 63 58 54 49 46 43 38 31 24 17 11 8 6 6 6 6
45 36 31 35 36 38 45 48 45 43 41 39 41 46 52 58 64 69 73 71 66 64 64 64 67 71 73 74 72 70 71 71 68 68 71 71 71 72 70 68 67 63 59 58 57 57 60 63 66 68 72 78 84 85 86 88 89 90 94 97 97 95 93 91 90 89 89 89 86 82 74 66 58 53 49 45 42 37 31 24 17 11 8 6 6 6 6
41 33 33 35 36 40 46 46 44 42 40 41 47 53 57 64 69 70 69 66 62 64 66 66 66 69 73 77 75 71 69 67 65 69 73 73 73 72 69 69 67 63 60 59 58 58 61 65 67 69 73 78 82 83 84 86 86 88 91 94 95 94 92 92 91 90 90 90 88 84 77 68 61 55 49 44 40 35 29 23 17 12 9 6 6 6 6
37 32 34 35 36 42 46 44 43 41 41 46 55 59 62 68 70 67 63 60 61 64 67 68 68 67 71 78 80 76 73 72 73 74 73 70 69 69 68 69 68 64 61 60 59 58 62 65 67 69 73 76 79 80 81 83 84 85 88 91 93 93 92 92 92 93 92 92 91 86 78 69 61 55 48 43 38 33 29 23 17 12 8 6 6 6 5
34 33 35 35 37 42 45 42 41 41 45 53 61 64 67 68 65 61 58 59 65 70 69 69 70 68 70 80 84 79 78 85 87 82 75 69 67 68 69 70 69 65 62 61 61 60 61 63 66 69 72 74 75 77 79 79 81 83 85 88 91 91 90 90 92 94 94 94 93 89 81 70 62 55 48 42 36 32 28 23 17 12 8 6 5 5 5
33 34 35 35 39 43 43 40 40 45 54 60 63 67 71 65 56 55 58 62 70 75 71 69 70 69 73 85 92 86 86 94 94 83 72 67 67 70 73 72 69 66 65 64 64 61 59 60 64 67 70 71 72 75 77 76 77 80 82 85 88 89 88 89 91 92 94 94 94 92 86 75 65 57 49 41 35 30 26 22 17 12 8 6 5 5 5
33 34 34 36 40 43 41 40 43 52 60 65 67 69 68 59 50 51 60 66 70 71 69 68 70 71 78 91 98 92 89 93 89 77 68 68 71 75 76 73 70 70 69 67 66 62 58 59 62 64 66 67 68 72 74 75 75 76 78 82 86 87 87 87 88 90 93 94 94 94 90 80 68 57 48 40 34 29 25 22 17 12 8 6 5 5 5
34 34 34 37 41 41 40 42 49 57 62 69 74 71 61 52 49 52 59 67 70 68 66 67 71 73 80 90 95 89 84 84 80 72 70 72 73 75 77 75 72 73 73 71 67 62 57 57 58 59 61 62 64 68 73 75 75 75 75 78 84 85 84 85 86 87 90 92 93 93 90 82 70 58 48 41 35 29 26 22 17 12 8 5 4 5 4
33 33 35 39 40 40 42 48 57 63 65 70 75 69 56 51 53 55 56 62 69 69 66 67 74 79 82 86 87 82 76 76 76 74 74 74 72 73 76 76 74 75 75 71 65 59 55 54 54 55 57 60 62 66 72 76 75 73 72 74 79 82 83 84 85 87 89 91 92 92 90 82 71 59 50 42 35 29 25 21 16 12 8 5 4 4 4
33 33 37 39 39 40 47 54 60 66 68 68 69 67 61 58 58 57 56 60 67 71 70 73 82 88 83 79 78 76 73 77 81 80 78 76 73 73 77 78 77 77 75 68 61 56 53 53 53 54 55 57 60 65 71 75 75 73 70 71 76 80 81 82 84 85 87 90 91 91 89 82 70 58 50 43 35 28 24 20 16 12 8 5 4 4 4
33 35 37 39 40 45 53 58 60 64 66 65 64 68 72 70 63 59 58 60 66 72 76 81 88 90 82 75 76 78 79 84 88 86 82 81 77 75 79 83 81 77 73 65 58 55 53 52 54 55 54 55 58 62 66 71 75 74 71 69 73 77 78 80 83 83 84 87 89 90 90 84 72 60 51 44 36 28 23 19 16 12 8 5 4 4 4
35 36 37 40 45 51 57 60 60 60 63 65 67 74 80 77 68 61 60 62 65 72 81 86 90 91 85 77 78 83 86 91 93 89 86 86 84 81 84 87 84 78 72 64 59 57 55 52 53 55 54 53 54 57 62 68 73 74 71 68 69 73 75 78 81 83 83 85 88 90 91 87 77 66 55 46 37 29 23 19 15 12 8 6 4 4 4
36 37 38 43 50 55 57 58 57 58 61 66 72 77 80 80 75 68 65 64 64 71 82 87 90 94 91 82 82 85 85 87 91 90 88 89 90 87 87 89 86 80 73 67 63 61 57 53 52 53 53 53 53 55 59 65 70 73 71 68 67 71 74 76 80 83 83 84 86 88 89 88 82 73 61 49 38 30 24 19 15 12 8 6 5 4 4
36 37 40 47 53 57 56 55 56 59 63 67 72 76 81 86 84 77 71 67 65 70 79 85 90 97 97 90 88 89 85 82 86 89 87 89 92 90 87 87 85 79 73 70 68 65 59 53 52 53 54 55 55 55 58 63 67 71 72 69 67 69 73 75 78 82 83 83 85 87 88 88 86 80 68 53 40 31 24 19 16 12 9 6 5 4 4
37 38 44 51 55 57 56 55 57 62 65 67 70 75 81 87 88 81 73 68 66 69 77 84 90 98 100 95 91 91 87 84 88 91 89 90 94 93 88 84 80 75 71 71 69 65 59 54 52 53 54 55 55 55 58 62 66 70 72 70 67 67 71 74 76 80 82 83 83 85 86 86 86 83 73 57 43 33 25 19 15 13 9 6 5 4 4
37 40 47 53 55 56 57 57 59 63 66 66 68 72 77 85 91 86 75 67 66 70 76 82 87 95 99 94 90 91 90 89 94 98 96 96 98 96 90 85 79 72 69 69 68 64 60 55 52 52 54 56 56 56 59 63 67 70 72 70 67 67 70 73 75 79 82 83 82 82 85 86 84 82 75 62 46 34 25 19 16 13 9 6 5 4 4
39 44 51 55 54 53 56 58 61 65 66 65 66 70 75 85 94 89 76 66 66 70 75 78 82 89 96 96 93 92 91 92 99 105 104 103 104 101 96 92 84 73 67 68 68 64 60 57 54 54 55 57 58 60 63 65 68 71 73 71 67 66 68 71 74 78 81 82 81 81 83 84 82 79 75 65 50 36 26 20 16 12 10 7 5 4 4
42 47 52 55 54 53 57 61 64 66 65 63 65 69 74 85 94 88 75 66 66 71 77 80 80 84 92 98 98 95 92 92 100 106 107 107 108 105 100 96 88 74 66 67 68 64 60 58 56 56 57 59 60 62 65 67 69 72 73 71 67 65 66 70 73 76 79 80 80 80 82 82 80 78 75 67 54 40 28 20 15 12 10 7 5 4 4
45 48 51 53 53 54 58 62 66 66 62 61 64 68 74 84 92 87 74 67 66 72 82 89 87 84 88 96 101 100 95 92 97 103 105 105 106 105 102 98 90 76 67 66 67 64 61 59 57 57 58 60 61 62 65 67 69 71 72 70 66 64 65 68 72 75 78 80 80 80 80 79 79 77 74 68 57 43 30 21 15 12 10 7 5 4 4
46 49 52 53 53 56 60 64 66 64 59 58 63 68 72 82 88 83 72 67 68 75 87 96 95 88 87 94 102 103 99 93 93 98 101 102 104 107 107 102 92 79 70 66 65 63 61 59 58 58 60 60 61 62 65 67 70 71 72 70 66 63 63 66 70 74 78 80 80 80 79 78 77 75 73 68 59 46 32 22 16 12 10 7 5 4 4
47 51 53 54 56 59 62 66 66 63 57 57 62 66 70 78 84 80 72 68 71 77 88 99 101 96 94 98 103 103 98 92 91 95 101 105 108 110 110 106 94 79 70 65 64 63 63 62 61 61 62 61 60 62 65 68 70 71 72 71 67 62 61 63 68 73 77 78 79 80 80 78 75 73 71 68 59 47 34 24 17 13 10 8 5 4 4
49 53 56 59 61 63 65 66 64 60 56 58 62 65 69 75 80 79 74 73 75 80 88 98 102 99 97 99 101 99 95 94 96 100 105 108 109 108 108 104 91 75 66 64 64 63 65 65 63 61 61 60 60 62 67 70 71 72 73 72 68 63 60 61 66 71 76 78 78 78 79 78 74 71 70 68 61 48 35 26 18 13 10 8 6 4 4
54 57 60 66 69 69 67 65 61 57 57 60 63 65 67 72 77 78 77 76 77 82 89 95 97 94 94 95 96 94 94 98 102 104 105 105 104 104 105 100 86 70 62 61 63 64 67 68 66 63 62 62 62 65 70 73 73 74 74 73 69 63 60 60 63 68 73 76 77 78 77 76 73 70 71 70 63 50 36 25 18 14 11 8 6 5 4
Wind_Speed
11 11 11 12 13 14 15 15 15 16 17 18 20 22 22 21 20 18 18 18 17 17 17 18 19 21 24 26 28 28 28 29 31 34 36 38 39 41 42 44 45 47 48 49 51 52 54 55 56 58 59 60 61 62 63 64 64 65 66 67 69 69 70 70 69 69 70 70 70 71 73 74 75 77 80 83 85 87 89 91 90 90 92 94 90 86 87
11 11 12 13 15 15 16 16 16 17 18 20 22 22 21 20 18 18 18 18 17 18 19 20 22 25 27 28 27 27 27 30 34 37 38 39 41 43 44 46 47 48 49 51 52 53 55 56 57 58 59 60 62 63 64 65 66 67 68 69 70 71 73 73 73 73 72 72 73 74 76 78 80 82 84 86 88 90 91 93 92 92 94 97 96 89 86
11 12 13 15 16 16 16 16 16 18 20 22 23 22 20 18 18 18 18 18 19 19 20 22 25 27 27 26 26 27 30 33 36 38 39 41 43 44 46 47 48 49 50 51 53 54 55 56 58 59 60 61 62 64 65 66 67 68 69 70 72 73 75 77 79 79 79 79 80 81 82 83 85 86 87 88 90 92 95 96 95 94 93 97 100 95 88
13 14 15 16 15 15 15 15 17 19 22 23 22 20 18 18 19 19 19 20 20 21 23 25 27 26 25 25 26 29 33 36 38 39 41 43 44 45 46 47 48 50 51 52 53 54 56 57 59 60 61 63 64 66 67 68 69 70 72 72 74 75 76 79 81 83 84 84 85 86 86 86 87 88 89 90 91 94 98 99 97 96 95 94 99 101 97
14 15 15 15 14 14 15 17 19 21 22 22 20 19 18 19 19 20 20 20 21 23 25 26 25 23 23 25 28 32 35 37 39 41 42 44 45 46 47 48 49 51 52 53 55 56 57 58 60 61 63 64 66 67 69 70 71 72 74 74 75 77 78 79 82 84 85 86 86 87 88 88 89 90 90 91 92 95 99 100 99 99 98 94 94 99 100
14 14 15 14 13 15 17 19 21 22 22 21 19 18 19 19 20 21 21 21 22 24 25 24 22 22 24 27 31 35 37 39 40 42 43 44 45 46 48 49 50 52 53 54 56 57 59 60 62 63 65 66 68 69 70 71 73 74 75 77 77 78 80 80 82 85 86 87 88 88 89 89 90 91 92 93 94 95 98 102 102 102 103 100 97 98 101
13 14 14 13 14 16 18 19 21 22 22 20 19 19 19 20 21 21 21 22 23 24 23 22 22 23 25 29 33 36 38 39 41 42 43 44 46 47 49 50 52 53 54 56 57 58 60 62 63 65 66 68 69 71 72 73 75 76 78 79 80 81 82 82 84 85 87 89 89 89 89 91 92 93 94 95 95 96 99 103 103 103 104 105 104 102 102
13 13 13 12 14 16 17 18 20 21 21 19 18 19 19 20 21 21 22 23 23 22 21 20 22 24 27 31 35 37 38 40 41 42 43 45 47 48 50 51 53 54 55 57 58 60 61 63 64 66 68 70 71 73 74 76 77 79 80 82 83 84 85 85 86 88 89 90 90 91 92 93 94 95 96 96 97 99 102 105 104 102 102 103 105 104 102
12 12 11 12 13 15 17 19 21 21 20 18 18 18 19 20 21 22 23 23 22 20 19 20 23 26 30 34 36 37 39 40 41 42 44 46 47 49 51 52 54 55 56 58 59 61 62 64 66 68 70 72 74 76 77 79 81 82 84 85 86 87 88 88 89 90 92 93 93 94 94 95 96 96 97 98 100 101 104 107 108 106 104 102 102 103 103
11 10 10 11 13 15 18 20 21 20 18 17 18 18 19 20 21 23 23 21 19 18 19 21 25 29 32 34 36 38 39 39 40 42 44 46 48 50 52 53 55 56 57 58 60 62 64 66 68 70 72 74 76 78 80 82 84 85 87 88 89 90 91 92 92 92 94 95 96 97 97 97 97 98 100 101 102 102 105 108 109 109 109 107 106 105 105
9 8 9 11 13 16 18 19 19 18 16 17 18 19 19 21 22 23 21 18 17 18 20 23 27 31 33 35 36 37 38 39 40 42 44 46 49 51 52 54 55 56 58 59 61 63 65 67 70 72 74 76 78 80 82 84 86 88 89 91 92 93 94 95 96 96 96 97 98 98 99 99 100 102 102 103 103 103 105 109 110 109 109 110 109 108 105
7 8 9 11 13 15 17 18 18 16 15 17 18 19 20 22 22 21 19 17 17 19 22 25 29 31 33 34 36 36 37 39 40 42 44 46 49 51 53 54 56 57 59 61 63 65 67 69 71 73 75 77 79 81 84 86 88 90 92 93 95 96 97 98 99 99 99 100 100 100 101 102 103 103 103 104 105 104 105 109 112 111 110 109 108 106 104
6 7 9 11 13 15 16 17 15 14 15 17 18 19 21 21 20 18 18 18 18 21 24 26 29 31 32 33 35 36 37 39 40 42 44 46 48 50 52 55 57 59 61 63 64 66 68 70 72 74 76 78 80 82 85 87 89 91 94 96 98 98 99 100 101 102 102 103 104 104 105 105 104 104 105 105 106 106 106 108 110 111 110 108 106 104 105
5 7 9 11 13 14 15 15 13 13 15 17 18 20 20 19 18 17 18 19 20 23 25 26 28 30 31 33 34 36 37 39 40 42 44 46 48 50 52 55 57 60 62 64 66 68 69 71 72 74 76 78 80 82 85 88 90 93 95 98 100 101 102 103 104 105 106 106 107 106 107 107 108 108 109 109 110 110 110 110 111 112 111 109 108 106 105
5 7 9 11 12 14 15 13 12 13 15 17 19 19 18 16 16 17 18 20 22 24 25 26 27 29 30 32 34 36 37 39 41 42 44 46 48 50 52 54 57 60 63 65 67 68 70 72 73 75 77 79 81 83 86 88 91 94 97 99 101 103 104 106 107 108 109 110 110 109 109 110 111 112 112 113 113 113 113 112 112 113 112 110 109 106 103
5 7 9 10 12 14 13 12 12 13 15 17 18 18 16 15 15 17 18 21 22 24 24 26 27 28 29 32 34 36 38 40 42 43 44 46 49 51 52 55 57 60 63 66 68 69 71 72 74 76 78 81 83 85 87 90 92 95 98 100 102 104 106 107 109 110 111 112 113 114 113 113 113 114 114 115 115 116 115 114 112 112 111 110 107 104 102
5 7 9 10 12 13 11 10 11 12 15 17 17 16 15 14 14 16 18 20 22 23 24 25 27 27 29 32 34 36 38 40 42 43 44 47 50 52 54 56 59 61 65 67 68 69 71 73 75 77 79 82 84 87 89 91 93 96 98 101 103 105 107 108 110 112 113 114 115 117 117 117 116 116 116 115 116 116 117 116 114 112 111 110 107 105 102
6 7 8 10 11 11 9 9 11 12 14 16 16 15 13 12 13 16 18 19 22 23 23 25 26 27 29 32 35 37 39 40 42 44 46 48 50 53 56 58 60 63 67 69 69 70 71 73 75 78 80 83 85 88 90 92 94 97 99 101 103 105 107 109 111 113 114 116 117 118 119 119 119 119 119 118 117 116 116 117 116 114 112 110 109 107 104
5 7 8 9 10 8 7 9 10 12 14 15 15 13 11 11 13 16 18 19 21 22 23 24 26 27 30 34 37 39 40 41 43 45 47 49 51 54 57 60 63 66 69 70 71 70 71 73 76 78 81 84 86 88 91 94 95 97 100 102 104 106 108 110 112 114 116 117 119 120 120 121 121 120 121 120 119 118 117 117 117 115 113 112 110 109 106
5 6 7 8 8 6 7 9 11 12 14 14 13 11 10 11 13 16 18 19 21 22 23 24 26 28 32 35 38 40 41 43 44 45 48 50 53 56 58 61 64 67 69 71 72 72 72 74 77 79 82 85 88 90 92 94 96 98 100 102 105 108 110 111 113 116 118 119 121 123 123 124 124 123 123 123 123 122 121 120 119 117 115 113 111 109 107
5 6 7 7 5 5 8 9 11 13 14 13 11 10 10 11 14 17 18 19 21 23 24 25 27 30 33 36 38 40 42 44 45 47 48 51 54 57 60 63 65 68 70 72 73 73 74 76 78 81 84 87 90 91 93 95 96 98 100 103 105 108 111 113 115 117 119 121 124 126 126 126 126 125 124 124 124 124 123 122 121 119 117 115 112 110 108
5 5 6 5 4 6 9 10 11 13 12 10 9 9 10 12 15 17 18 20 22 24 25 27 30 33 35 38 39 41 43 45 47 47 49 52 55 58 61 64 66 68 71 74 75 75 76 78 80 83 86 89 91 93 95 96 97 99 101 104 106 109 111 114 116 118 120 122 123 125 127 127 127 126 125 124 124 123 122 122 121 121 120 118 115 111 109
5 5 5 2 4 7 9 11 12 12 10 8 7 8 9 12 16 18 19 21 23 25 27 29 32 35 36 38 40 42 44 46 47 48 50 53 56 59 62 64 66 69 72 75 76 77 78 80 82 85 88 90 92 94 95 97 98 100 102 104 107 109 111 114 116 118 120 121 123 125 127 128 128 128 127 127 126 124 123 122 122 121 121 119 117 113 110
5 5 4 2 6 8 10 11 11 10 8 6 7 8 10 13 17 19 20 22 24 27 29 31 33 35 36 38 40 43 45 46 48 49 51 54 56 59 62 64 66 68 72 76 78 79 80 81 84 86 89 91 93 96 97 98 100 101 103 105 108 110 112 115 117 119 121 122 124 125 127 128 129 129 129 128 127 126 124 123 122 121 119 118 116 114 111
4 4 1 4 7 9 10 11 10 9 7 5 6 8 11 15 18 20 21 23 26 28 30 32 34 35 37 39 41 44 45 47 48 50 52 54 57 59 62 64 65 68 73 77 80 81 82 83 85 87 89 92 94 97 98 100 101 103 105 107 109 111 113 115 118 120 121 123 124 125 127 129 130 130 130 128 127 126 125 124 123 120 118 115 113 111 109
4 2 2 6 8 10 11 10 9 7 5 4 6 9 13 16 19 21 23 25 27 30 31 33 34 36 38 40 42 44 46 48 49 51 53 55 57 59 62 63 65 69 74 78 81 82 83 84 85 87 90 92 95 97 99 101 103 104 106 108 110 112 114 116 118 120 122 123 124 125 127 129 131 131 131 130 128 127 126 124 122 120 117 113 111 109 108
4 2 5 8 9 10 10 9 8 6 4 4 6 10 14 17 19 22 24 26 28 30 31 32 34 36 38 40 42 45 47 48 51 53 54 56 58 60 61 63 65 70 75 79 81 82 83 84 86 88 91 93 96 98 101 103 105 106 108 110 112 114 115 117 119 121 123 125 126 127 128 129 131 132 132 131 130 129 127 125 123 120 118 115 113 110 108
4 3 7 10 10 10 10 9 7 5 4 5 8 12 15 18 20 23 25 27 28 29 30 32 34 36 39 41 43 46 48 50 52 54 56 57 58 59 61 63 66 71 76 80 82 82 83 84 86 89 92 95 97 100 102 104 106 108 109 112 114 116 117 119 121 123 124 126 128 129 130 130 132 132 133 133 132 131 129 126 124 122 120 118 116 113 110
4 5 9 11 11 11 10 8 6 4 4 6 10 13 16 18 21 23 25 26 27 29 31 33 35 37 40 42 45 47 50 52 54 56 57 57 58 59 61 63 67 72 76 80 82 82 84 86 88 91 94 96 98 101 103 106 108 110 111 113 116 118 119 120 122 124 125 127 128 129 130 131 132 133 134 134 134 132 130 128 126 124 122 120 118 115 112
5 8 11 12 11 11 9 7 5 4 5 8 11 14 17 19 21 23 24 26 27 29 31 34 36 38 41 44 47 49 51 53 55 56 57 58 58 59 61 64 68 72 76 80 82 83 85 87 90 93 95 98 100 102 104 107 109 111 113 115 118 119 121 122 124 125 126 128 129 130 131 132 133 134 135 135 135 133 131 129 127 124 122 121 119 116 113
7 11 12 12 11 11 9 7 5 4 6 9 12 15 18 20 21 23 24 26 27 29 32 34 37 39 42 45 47 49 51 53 55 56 57 58 59 60 62 65 68 71 76 80 82 84 86 89 92 94 97 99 102 104 106 109 111 113 115 118 120 121 122 124 125 127 128 129 130 131 133 133 134 134 135 135 135 134 132 130 127 125 123 120 118 116 113
10 13 14 13 12 10 8 6 4 5 8 11 14 16 19 20 21 22 24 25 27 30 32 35 37 40 42 45 47 49 51 53 55 56 57 58 59 61 63 66 68 71 75 79 82 85 87 90 93 95 98 100 103 106 108 111 113 115 117 119 121 123 125 126 127 129 130 132 133 133 134 135 135 136 136 136 135 134 133 130 127 125 122 119 116 114 111
13 15 14 13 11 9 7 5 4 7 10 13 15 17 19 20 21 22 23 25 28 30 33 35 38 40 42 44 46 49 51 53 55 56 58 59 60 62 64 66 68 71 76 79 82 85 88 90 93 96 98 101 104 106 109 112 115 117 119 121 123 125 126 128 129 131 133 134 135 136 136 136 136 137 136 136 135 134 133 131 127 124 121 118 115 112 109
16 16 14 13 10 8 7 4 5 8 11 14 16 17 19 19 20 21 23 26 28 31 33 36 38 40 42 44 46 48 51 53 55 57 58 59 61 63 65 66 68 73 77 80 82 85 88 91 93 96 99 102 104 107 110 113 116 118 120 122 124 126 127 129 130 132 134 136 137 138 138 137 137 137 137 137 136 134 133 131 128 124 121 118 115 112 109
17 16 14 12 10 8 6 4 7 10 12 14 16 16 17 18 19 21 24 27 29 32 34 36 38 40 42 44 46 49 51 53 55 57 58 60 61 63 65 67 70 74 77 80 83 86 88 91 94 97 99 102 105 108 111 114 117 119 121 123 125 127 128 130 131 133 136 137 138 139 140 139 139 139 138 137 136 135 133 132 129 125 121 118 114 111 108
18 16 14 12 10 8 6 6 9 11 13 14 15 15 16 17 19 22 25 28 30 31 34 36 38 40 42 44 46 49 51 53 55 57 58 60 62 63 65 68 72 75 78 81 83 86 89 92 94 97 100 103 106 109 113 115 118 120 123 125 127 128 130 131 132 134 136 138 140 140 141 141 140 139 138 138 137 136 135 133 130 126 122 118 115 111 108
19 16 14 12 9 8 6 8 10 12 12 13 13 14 15 17 19 22 25 28 30 32 34 36 38 40 43 45 47 49 51 53 55 57 58 60 61 63 66 69 73 76 79 82 84 86 89 92 95 98 101 104 107 111 114 116 119 121 124 126 128 130 131 132 133 135 136 138 140 141 142 141 141 140 139 139 138 138 136 134 131 127 123 119 116 113 109
18 16 14 11 9 8 9 10 11 11 11 11 12 13 15 18 21 24 26 29 31 33 35 37 39 41 44 46 47 49 51 53 55 57 59 60 62 64 67 70 73 76 79 82 84 86 89 92 95 99 102 105 108 111 114 117 119 122 124 126 129 131 133 134 135 136 138 140 141 142 143 143 142 141 140 139 139 138 137 135 132 129 125 121 118 114 112
17 15 13 11 10 10 11 11 11 10 10 10 12 13 16 19 22 25 27 30 32 34 36 38 40 42 44 46 47 49 51 53 55 57 60 61 63 65 67 70 73 76 80 82 84 86 89 92 96 99 102 106 109 112 115 118 120 122 125 127 129 131 133 135 136 137 139 141 143 144 145 145 145 144 143 142 140 139 137 135 133 130 126 123 119 116 113
17 15 13 12 12 12 12 11 10 9 9 10 12 14 17 20 23 26 28 31 32 34 36 38 40 42 44 46 48 50 51 53 55 57 60 62 64 66 69 71 74 77 80 83 85 87 90 94 98 101 103 106 109 113 115 118 121 124 126 128 130 132 134 136 137 138 140 141 144 145 147 148 148 147 146 145 143 141 139 137 134 132 128 124 121 118 115
17 15 14 14 14 12 11 10 9 9 9 11 13 16 18 21 23 26 29 31 32 34 36 38 40 42 44 46 48 50 52 54 56 58 60 63 65 68 70 72 75 77 80 83 87 90 93 96 99 102 105 107 110 113 116 119 122 124 126 128 130 132 134 136 138 139 140 142 144 146 148 149 150 150 149 147 145 143 141 139 136 133 130 126 123 119 116
18 16 16 15 14 11 10 9 9 9 9 11 14 16 19 21 24 27 29 31 32 34 35 37 40 42 44 47 49 50 52 54 56 58 60 63 66 68 71 73 76 78 81 85 89 92 95 97 100 103 106 109 111 114 116 119 122 125 127 129 131 133 136 137 139 140 141 143 145 147 149 150 151 152 151 149 147 145 143 141 137 134 131 128 124 121 117
18 18 17 15 12 10 9 8 8 9 10 12 15 17 20 22 24 26 29 30 32 34 35 37 40 42 45 47 50 52 54 56 58 60 62 64 66 69 71 74 76 79 83 87 91 94 96 98 101 104 107 110 112 114 117 119 122 125 127 130 132 134 136 138 139 141 142 143 145 147 149 150 152 153 153 151 149 146 144 141 138 135 132 128 125 122 118
19 19 17 14 11 9 8 7 8 9 11 13 15 17 20 22 24 26 29 30 32 34 35 38 40 43 45 48 51 53 55 57 60 62 64 66 68 70 72 75 77 80 84 88 91 94 97 100 102 105 108 110 112 115 117 119 122 125 127 130 132 135 137 139 140 141 142 143 145 147 149 150 152 153 153 152 149 147 145 142 139 135 132 128 125 122 118
21 19 16 12 10 8 7 7 8 9 11 13 15 17 19 21 24 26 29 30 32 34 36 39 41 44 47 50 53 55 57 59 61 64 66 68 70 72 74 76 79 82 85 89 92 95 98 101 103 106 108 111 113 115 117 120 122 125 128 130 133 135 138 140 141 142 143 144 145 146 149 150 152 153 154 153 150 148 145 143 140 136 132 128 125 122 119
20 17 14 11 9 7 6 6 8 9 11 13 15 16 19 21 24 26 28 30 32 35 37 40 43 46 48 51 54 56 59 61 63 65 67 70 72 74 76 79 81 83 86 90 93 96 99 102 104 107 109 111 113 116 118 121 123 126 129 131 133 136 139 141 142 143 144 145 145 147 149 150 152 153 154 154 152 149 146 144 141 137 133 129 125 122 119
19 15 12 10 8 6 5 6 7 9 11 13 14 16 18 21 24 26 28 30 33 35 38 41 44 47 50 52 55 58 60 62 65 67 69 71 74 76 78 81 83 86 89 91 94 97 100 102 105 107 109 111 113 116 119 121 124 127 130 132 134 137 139 141 143 144 144 145 146 147 149 150 151 153 154 154 153 150 147 144 141 138 134 129 126 122 119
17 14 11 9 7 5 4 5 7 8 10 12 13 15 18 21 24 26 28 31 34 36 39 42 45 48 51 53 56 59 61 63 66 68 71 73 75 78 80 83 85 88 91 93 95 98 100 103 105 107 108 111 114 117 120 122 125 128 131 133 135 138 140 142 144 145 146 147 147 148 149 150 152 153 154 154 153 151 147 143 141 138 134 130 126 123 120
15 12 10 8 5 3 3 4 6 8 9 11 13 16 19 21 24 26 29 32 35 38 40 43 46 50 52 55 57 60 62 64 66 69 71 74 77 80 83 85 87 89 92 94 96 98 100 102 104 107 109 111 114 118 121 124 126 129 131 134 136 138 140 143 145 146 147 148 149 149 150 151 152 153 154 154 153 151 148 144 141 138 135 131 127 124 120
13 11 9 6 4 1 2 4 6 7 9 11 14 16 19 22 25 27 30 33 36 39 41 44 48 51 54 56 58 60 62 64 67 70 73 76 80 82 85 87 88 90 93 95 97 98 100 102 104 107 109 112 115 118 122 124 127 130 132 134 137 139 141 144 146 147 148 149 149 150 151 152 153 153 154 155 154 151 148 145 141 138 135 131 127 124 120
11 9 7 5 2 1 2 4 6 8 10 12 15 17 20 23 26 29 32 35 38 40 43 46 49 52 54 56 58 60 63 65 68 72 75 78 80 83 85 87 89 90 93 95 97 98 100 103 105 107 110 112 116 119 123 125 128 130 132 135 137 140 142 144 146 148 149 149 150 151 152 152 153 154 155 156 155 152 148 144 141 137 134 131 127 124 121
11 9 6 4 4 4 4 6 8 9 11 14 16 19 22 25 28 31 34 36 39 42 44 47 50 52 54 56 59 61 64 67 70 74 76 79 81 83 85 87 89 91 93 95 96 98 101 104 106 109 111 114 117 120 123 126 129 131 133 135 138 141 143 145 147 148 149 150 151 151 152 152 153 154 155 156 156 153 148 144 140 136 133 130 128 125 122
Wind_Direction
47 45 42 40 36 33 30 27 24 19 13 8 4 1 1 4 10 16 22 27 27 24 24 26 29 31 31 31 29 27 25 25 26 27 27 25 23 21 20 18 16 14 12 11 10 8 7 6 6 5 5 4 3 3 3 2 2 2 1 1 359 358 357 358 357 356 355 354 353 351 350 349 349 348 347 347 346 345 343 342 343 344 341 338 337 339 341
45 42 39 36 33 30 28 26 21 15 9 6 4 4 7 12 20 27 30 32 30 29 31 33 35 35 33 32 30 29 28 29 30 28 26 24 22 20 19 17 15 13 11 10 9 8 7 6 6 5 5 4 3 3 3 3 3 2 2 1 360 358 357 356 357 356 355 354 353 353 352 351 351 351 350 349 348 346 344 343 344 344 343 340 338 339 341
42 39 36 34 31 30 28 24 18 11 7 6 7 9 14 21 29 34 34 33 34 36 38 38 38 36 35 33 31 31 31 31 30 27 25 23 21 19 17 15 13 12 11 10 9 8 7 6 6 5 5 4 3 3 3 4 4 3 3 2 0 359 358 356 356 356 355 355 355 354 354 354 353 353 352 351 349 347 345 344 344 344 344 343 340 339 340
38 36 35 33 31 29 26 20 15 9 7 8 10 14 21 29 35 36 35 35 39 41 41 40 39 37 36 34 33 33 32 30 29 26 24 22 20 18 16 14 12 11 11 10 9 8 8 7 7 6 5 5 4 4 4 4 4 3 3 3 1 0 360 358 356 356 356 357 356 355 355 355 354 354 353 351 350 349 346 344 344 344 344 344 342 340 341
36 35 34 32 31 28 22 18 13 8 9 11 13 20 29 36 39 38 37 40 43 43 42 42 41 37 36 35 34 34 32 29 28 26 24 22 19 17 15 13 12 12 11 10 10 9 9 8 8 7 6 6 5 5 5 5 5 4 3 3 2 1 1 360 358 357 357 357 357 356 356 355 355 354 353 352 351 350 347 343 345 346 344 344 343 341 341
36 34 33 32 29 24 19 15 10 8 10 13 17 28 36 40 42 41 41 44 45 44 44 43 40 37 36 35 35 34 32 29 28 26 23 21 19 17 16 14 13 13 12 12 11 10 10 9 9 8 7 7 7 7 7 6 6 5 4 4 4 3 2 1 360 358 358 357 358 358 356 355 355 354 353 353 352 351 348 344 345 347 345 344 345 344 343
35 35 35 34 28 22 16 11 8 8 12 17 26 36 41 44 47 46 46 46 46 45 44 42 40 37 36 36 35 33 31 30 28 26 23 22 20 18 17 16 15 15 14 13 12 11 11 11 10 10 9 9 9 8 8 8 7 7 6 5 5 4 3 3 1 360 359 359 358 358 357 356 355 354 354 353 352 352 349 346 346 347 347 346 346 346 345
37 38 40 36 27 18 11 7 8 11 17 25 34 41 45 49 52 51 48 45 45 46 44 41 40 37 36 36 35 34 32 31 29 27 24 23 21 20 19 18 17 16 15 14 14 13 13 12 12 12 11 11 11 10 10 9 8 8 7 6 6 5 4 4 3 1 360 359 358 358 357 356 356 355 354 353 353 353 350 347 346 347 347 347 347 346 346
42 45 44 35 23 13 6 6 10 16 25 34 42 46 51 55 55 52 48 44 44 46 43 40 40 38 36 36 35 34 33 31 29 27 25 24 23 22 20 19 18 17 16 15 15 14 14 14 14 13 13 12 12 12 11 10 10 9 8 7 7 6 5 4 4 2 1 360 359 359 358 357 356 355 354 353 353 354 352 348 347 348 348 348 347 346 347
49 52 44 32 19 9 7 9 13 21 32 42 47 51 56 58 55 51 48 45 44 45 42 40 40 38 37 37 36 35 34 32 30 28 26 25 24 23 21 20 19 18 17 17 17 16 15 15 14 14 14 13 13 12 12 11 10 10 9 8 7 7 6 5 5 4 2 0 360 359 358 357 356 355 354 354 353 354 354 349 348 349 349 348 348 348 347
59 55 40 28 17 9 9 11 16 27 39 47 52 58 59 57 53 49 49 47 44 45 44 41 40 39 38 38 38 36 34 32 30 28 27 26 24 23 21 20 19 19 18 17 17 17 16 15 15 14 14 13 13 12 12 11 10 10 9 8 7 7 6 5 4 4 3 1 0 359 358 357 357 356 355 354 353 354 354 351 349 350 350 350 349 348 347
66 52 36 26 14 9 10 13 20 35 47 53 59 63 60 56 51 48 50 49 45 45 45 41 40 40 39 39 39 36 34 32 30 28 27 25 24 22 20 20 19 19 18 17 17 16 16 15 14 14 14 13 13 12 12 11 10 9 9 8 7 7 6 5 4 3 3 1 0 360 359 358 357 356 355 354 353 353 354 353 351 350 351 350 349 348 346
67 45 34 22 11 10 12 16 27 44 54 59 65 64 58 55 52 49 50 49 46 44 43 40 40 41 41 41 39 36 33 31 29 27 26 24 22 21 19 19 19 18 17 16 16 15 15 14 13 13 13 12 12 12 11 11 10 9 9 8 7 7 6 5 4 3 2 1 1 0 359 358 357 356 355 354 354 353 353 353 351 350 350 349 349 348 348
61 42 30 16 9 10 14 21 36 52 60 66 67 62 56 53 52 51 51 49 46 41 40 40 42 43 43 41 38 35 31 29 27 25 23 22 21 19 18 18 17 16 15 15 15 14 14 13 12 12 12 12 11 12 11 11 10 10 9 9 8 7 6 5 5 4 3 2 1 0 359 358 357 356 356 355 354 354 353 353 352 351 350 349 349 349 349
53 39 24 11 9 11 16 28 47 59 66 70 67 61 56 52 52 54 52 50 46 41 40 43 46 45 44 40 36 33 30 27 25 23 21 20 19 18 17 16 16 15 14 13 13 13 12 12 11 11 11 11 11 11 11 11 11 10 9 9 8 7 7 6 5 4 3 2 1 0 360 359 358 357 357 355 355 354 354 353 353 351 350 350 350 349 348
44 35 18 9 10 13 20 38 56 64 71 72 66 60 54 52 54 55 52 49 45 41 42 46 47 46 42 37 33 30 28 25 23 21 20 19 18 17 16 15 14 13 12 11 11 11 11 11 11 10 10 10 10 10 11 11 11 10 10 9 8 7 6 6 5 5 4 3 1 1 0 360 359 358 357 356 355 354 354 353 353 352 351 350 349 348 348
36 28 12 8 10 14 27 50 63 69 75 72 65 58 54 52 54 53 50 45 43 42 43 46 47 44 38 33 29 27 24 22 20 19 18 17 16 16 15 15 13 11 10 10 10 10 10 10 10 10 10 10 10 10 10 10 10 10 9 9 8 7 6 6 5 5 4 3 2 1 0 0 360 359 358 357 356 355 354 352 352 352 351 350 349 348 349
31 19 7 7 11 18 40 64 69 74 76 70 63 58 54 52 51 49 46 43 41 43 45 45 45 40 33 28 25 22 21 19 18 17 17 16 15 15 15 14 12 11 10 9 9 9 9 9 10 10 10 10 10 10 10 10 9 9 9 8 8 7 7 6 5 5 4 3 2 2 1 0 0 359 358 357 356 355 354 353 352 352 351 350 350 349 349
24 10 4 6 12 26 59 75 77 79 75 67 63 60 55 51 49 47 45 43 44 45 45 44 41 34 28 25 22 20 19 17 16 16 15 15 15 15 15 13 12 10 9 9 9 9 9 9 10 10 9 9 9 9 9 9 9 9 8 8 8 7 7 6 5 4 4 3 2 2 1 1 0 359 358 356 356 355 354 353 352 352 351 351 351 350 350
12 1 360 5 17 50 81 84 84 82 73 65 64 63 55 49 48 48 46 45 46 45 43 42 37 29 25 23 21 19 18 16 16 15 15 15 15 15 14 13 11 10 10 9 9 9 9 9 9 9 9 9 9 8 9 9 8 8 8 8 7 7 6 6 5 4 4 3 2 2 1 1 0 360 359 357 356 355 355 354 353 352 352 351 351 350 350
358 352 354 4 33 83 94 90 89 83 71 65 66 65 55 48 48 48 48 47 46 44 41 38 32 27 24 22 20 18 17 15 15 15 15 15 14 13 13 12 11 10 10 9 9 9 9 9 9 9 9 9 8 8 8 8 8 8 8 8 7 7 7 6 6 5 4 4 3 2 2 1 1 0 359 358 356 356 355 354 353 352 352 352 351 351 350
344 343 349 8 72 105 100 96 92 81 73 71 69 64 54 48 47 47 47 46 44 42 38 34 29 25 23 20 18 16 15 15 15 15 15 14 13 12 11 11 10 10 9 9 9 9 9 10 9 9 8 8 8 8 8 8 8 8 8 8 7 7 7 6 6 6 5 4 4 3 2 1 1 0 360 359 357 356 355 354 353 353 352 352 351 351 350
333 336 345 24 113 114 106 101 93 83 80 79 71 63 52 46 46 47 47 45 42 39 35 30 27 24 21 18 16 15 15 15 15 15 14 12 11 11 10 10 10 9 9 9 9 9 9 9 9 8 8 8 8 8 8 8 7 8 8 8 7 7 7 6 6 6 5 4 4 3 2 1 1 0 360 359 358 356 355 354 354 354 353 352 351 351 351
325 333 342 108 127 117 110 104 94 89 90 84 71 61 50 44 45 47 47 45 41 37 32 27 24 21 18 16 15 15 15 15 15 14 13 11 11 10 10 9 9 9 9 8 9 9 9 9 9 9 8 8 8 8 8 8 8 7 7 7 7 7 7 7 6 5 5 4 4 4 2 1 1 1 0 360 358 357 356 355 354 354 354 352 351 351 350
320 330 335 143 133 120 113 105 98 97 98 86 69 55 46 45 46 48 47 43 38 33 29 26 22 19 17 16 15 15 15 15 14 13 11 10 10 9 9 9 9 8 8 8 8 8 8 9 9 9 9 9 9 8 8 8 8 8 7 7 7 7 7 7 6 5 5 4 4 3 3 2 1 1 0 360 359 357 356 355 355 354 353 353 352 351 350
310 316 169 149 136 124 116 109 104 104 101 82 62 50 46 47 49 48 45 39 34 31 28 24 20 17 16 16 16 15 15 14 13 11 10 9 9 9 9 9 9 8 8 8 8 8 8 9 9 10 10 10 9 9 9 8 8 8 8 7 7 7 6 6 6 5 4 3 3 3 3 2 1 0 0 360 359 358 357 356 355 353 353 353 353 352 351
293 256 165 150 139 128 119 113 112 115 106 74 55 49 49 51 50 46 41 37 33 30 26 22 19 17 17 17 16 15 14 13 11 11 10 9 9 9 9 9 9 8 9 8 8 9 9 9 10 10 10 10 10 10 9 9 8 8 8 7 7 7 6 6 6 5 4 3 3 2 2 2 1 0 360 359 359 358 357 356 355 353 353 353 353 353 352
272 201 163 152 143 132 124 121 124 124 100 65 54 53 53 51 48 43 38 35 32 28 24 21 20 18 17 16 15 13 12 11 11 10 10 10 10 10 10 9 9 9 9 9 9 10 10 10 11 11 11 11 11 11 10 9 9 8 8 8 7 7 7 6 6 6 5 4 3 2 2 1 1 360 359 359 359 359 357 356 355 354 354 354 354 353 352
243 185 162 154 146 136 130 132 136 125 87 63 58 57 54 49 45 41 37 34 30 26 24 23 21 19 17 16 14 13 12 11 11 11 11 11 11 11 10 9 9 9 9 10 10 11 11 11 11 11 11 11 11 11 10 10 9 9 8 8 8 7 7 6 6 6 6 5 3 2 1 1 1 0 360 359 359 359 358 356 356 355 355 355 354 353 352
214 176 162 156 147 138 136 142 143 118 80 67 62 58 52 47 43 39 36 32 28 26 25 23 21 18 16 15 14 13 12 12 12 12 12 12 12 11 10 9 9 9 10 10 11 11 11 11 11 11 11 11 11 11 10 10 9 9 9 8 8 7 7 6 6 6 6 5 4 3 2 1 1 0 360 360 359 359 358 357 356 356 356 355 354 353 352
193 171 163 157 148 141 145 154 147 107 78 71 64 57 51 45 41 37 33 30 28 26 25 23 20 18 16 14 13 13 12 13 13 13 13 12 11 10 9 9 8 9 9 10 10 10 11 11 10 11 11 10 10 10 10 10 10 9 9 9 8 8 7 7 6 6 5 5 4 3 2 1 1 0 360 360 359 358 358 357 357 356 356 356 355 354 352
180 168 164 158 147 144 155 163 140 95 79 72 63 55 50 45 39 35 31 29 28 26 23 21 19 17 15 14 13 12 13 13 14 13 12 11 10 9 8 8 8 8 8 9 9 9 10 10 10 10 10 10 10 10 10 10 9 9 9 9 8 8 7 7 6 6 6 5 4 4 3 2 1 1 0 360 359 358 358 357 357 357 357 356 355 354 353
174 168 164 156 147 150 164 164 120 88 79 69 59 52 48 43 38 34 31 29 26 23 21 19 18 16 14 13 12 12 12 13 12 11 10 10 9 8 8 7 7 7 7 8 8 8 9 9 9 9 9 9 9 9 9 9 9 9 9 9 8 8 8 7 7 6 6 5 4 4 3 2 1 1 360 359 359 359 358 358 357 357 357 356 355 354 353
171 169 163 153 148 159 172 157 108 88 77 65 56 50 44 40 36 34 30 27 23 21 18 18 16 14 13 12 11 10 11 11 10 10 9 9 8 8 7 7 7 6 6 7 7 7 8 8 8 8 8 8 8 8 9 9 8 8 8 8 8 8 8 7 7 6 6 6 5 4 3 2 1 1 0 359 359 358 358 358 357 357 357 356 356 355 354
171 169 161 151 155 168 169 135 101 89 75 63 55 48 41 37 35 32 29 24 21 19 17 16 15 13 12 11 9 8 9 9 8 8 8 8 8 8 8 8 7 6 6 6 6 6 7 7 7 7 7 7 8 8 8 8 8 7 7 7 7 7 7 7 7 7 6 6 5 4 3 2 2 1 0 359 359 358 358 358 357 357 357 357 356 355 355
171 167 157 153 163 172 159 120 100 88 73 61 52 44 38 36 34 30 26 22 19 17 15 14 13 11 10 9 8 7 8 8 7 7 8 9 8 8 8 8 7 6 6 6 6 5 6 6 6 7 7 7 7 8 8 8 8 7 7 7 7 7 7 7 7 7 6 6 5 4 4 3 1 1 0 359 359 358 358 358 357 357 356 356 356 356 355
171 164 155 157 168 168 144 116 99 84 70 61 52 42 36 35 31 27 24 21 17 15 14 13 11 10 9 9 7 7 7 7 7 8 9 9 9 8 8 7 7 6 5 5 5 5 5 5 6 7 7 7 7 7 7 7 7 6 6 6 6 6 6 6 6 6 6 6 5 4 4 3 1 1 0 360 359 359 358 358 357 357 356 356 356 356 356
169 159 155 162 168 155 132 113 95 79 66 58 49 41 35 32 27 23 22 19 16 14 12 11 10 9 9 9 8 7 8 8 8 8 8 8 8 7 7 7 7 6 5 5 4 4 5 5 6 6 6 6 6 6 6 6 6 6 6 5 5 6 6 6 6 6 6 6 5 4 4 3 1 1 0 0 360 359 358 358 357 357 356 356 356 356 356
164 157 159 166 162 143 124 108 92 77 65 55 47 39 32 27 23 21 19 18 15 13 11 11 10 9 9 9 9 8 8 8 7 7 6 6 6 6 6 6 6 5 5 4 4 4 4 5 5 5 5 5 5 5 5 5 5 5 5 5 5 5 5 5 5 6 6 5 5 4 3 2 1 0 0 0 360 359 359 358 357 357 357 356 357 357 357
160 159 165 164 151 134 118 102 89 77 65 52 43 35 28 23 20 18 17 16 15 13 11 10 10 10 9 9 9 7 7 6 5 5 5 5 5 5 5 5 5 4 4 4 3 3 4 4 4 4 4 4 5 5 5 5 5 5 5 5 5 5 5 5 5 5 6 5 5 4 4 3 1 0 0 0 360 359 359 358 358 357 357 357 357 357 357
160 164 166 157 143 129 115 102 91 78 63 48 37 31 25 21 18 16 15 15 14 12 10 10 9 9 8 8 7 6 5 5 4 4 4 4 4 4 4 4 3 3 3 2 2 2 2 2 3 3 3 4 4 4 4 5 4 4 4 4 4 5 5 5 5 5 5 5 5 5 4 3 2 1 0 360 360 359 359 358 358 357 357 357 357 357 357
164 167 162 150 139 127 115 104 92 76 59 44 34 27 23 18 15 13 13 13 13 11 9 8 8 7 7 6 6 5 5 4 3 3 3 3 3 3 3 3 2 2 2 1 1 1 1 1 2 2 2 3 3 3 4 4 4 4 4 4 4 4 5 5 5 5 5 5 5 5 4 4 3 1 0 360 359 359 359 358 358 357 357 357 357 357 357
168 167 158 148 138 128 117 105 88 70 53 41 32 25 19 15 12 10 10 10 10 9 7 6 6 6 5 4 4 4 4 3 3 2 2 2 1 1 2 2 1 1 1 1 0 360 360 0 1 1 2 2 2 3 3 4 4 4 3 4 4 4 4 5 5 5 5 5 5 5 5 4 3 2 1 360 359 359 359 358 358 358 357 357 357 356 356
170 165 156 148 140 130 119 101 80 63 48 37 29 22 16 11 9 7 7 7 7 6 5 5 5 4 3 2 3 3 3 3 2 2 1 1 1 1 1 1 1 1 1 0 360 359 359 359 0 1 1 1 1 2 3 3 4 4 3 3 4 4 4 4 4 5 5 5 5 5 5 4 4 3 1 0 359 359 359 358 358 358 357 357 357 356 356
167 160 154 149 143 133 118 96 74 57 44 34 26 19 13 9 5 4 3 4 5 5 4 3 3 3 2 1 1 1 1 2 1 1 1 1 0 0 0 0 360 360 360 359 359 358 358 359 359 0 1 1 1 2 2 3 3 3 3 3 3 4 4 4 4 4 5 5 5 5 5 5 4 3 2 1 360 359 359 358 358 357 357 357 357 357 357
162 158 154 150 145 134 112 85 64 49 38 31 24 16 10 5 2 360 360 1 2 3 2 1 1 1 0 359 359 359 360 0 0 359 359 359 359 358 358 358 358 358 358 358 358 357 358 358 359 360 0 1 1 2 2 3 3 3 3 3 3 3 3 3 4 4 4 5 5 5 5 5 4 3 2 1 0 359 359 358 357 357 357 357 357 357 357
161 159 157 154 147 131 102 72 52 40 32 26 20 12 6 1 358 356 356 358 359 359 358 357 357 357 357 356 356 356 357 358 358 358 357 357 357 357 357 356 356 356 357 357 357 357 357 357 358 359 0 1 1 2 2 3 3 3 2 3 3 3 3 3 3 4 4 5 5 5 5 5 4 4 3 2 1 360 359 358 357 357 356 356 356 356 357
163 163 161 157 148 127 90 59 39 29 23 19 14 7 1 357 354 351 352 354 356 356 355 353 353 353 354 353 353 353 354 355 356 356 355 355 356 355 355 355 355 355 355 356 356 356 356 357 358 359 360 0 1 1 2 2 2 2 2 2 2 3 3 3 3 3 4 4 5 5 5 4 4 4 3 2 1 0 359 358 358 357 356 356 356 356 357
167 166 165 162 153 125 73 39 24 16 12 10 6 1 356 352 349 347 348 351 353 354 353 351 350 351 351 351 350 350 351 353 354 354 354 354 354 354 353 353 353 353 354 354 355 355 356 356 357 358 359 360 0 1 1 1 1 1 1 1 2 2 2 2 3 3 3 4 4 4 4 4 4 4 3 3 2 1 360 359 358 357 356 356 356 356 356
171 171 172 171 164 130 35 11 3 359 359 359 358 355 351 347 344 343 344 347 349 350 349 348 347 348 349 349 348 349 349 351 352 353 352 352 352 352 351 351 351 352 352 353 354 355 355 356 357 358 359 359 360 0 0 0 1 1 1 1 1 1 2 2 2 2 3 3 4 4 4 4 4 4 3 3 2 1 0 359 358 357 357 356 356 356 356
179 181 185 190 206 276 330 339 340 342 346 349 348 347 344 341 338 338 340 342 344 345 345 344 344 346 347 347 347 348 348 349 350 350 350 350 350 350 350 350 350 351 351 352 353 354 355 355 356 357 358 359 359 360 360 360 360 0 0 0 0 1 1 1 2 2 2 3 3 4 4 4 4 3 3 3 2 1 1 360 359 358 357 356 356 356 356
190 196 205 223 254 282 303 318 325 331 336 338 339 339 338 335 334 334 336 338 340 342 342 342 343 345 346 347 347 348 348 348 348 349 349 350 350 350 349 349 349 350 351 351 352 354 354 355 356 357 358 358 359 359 359 359 359 359 360 360 360 0 1 1 1 1 2 2 3 3 4 4 3 3 3 3 2 1 1 360 359 358 358 357 357 356 356